Wind_Speed
37 35 35 36 35 36 32 32 24 23 25 28 30 32 34 36 37 39 36 26 27 31 32 29 27 24 23 21 19 19 19 17 19 19 21 19 18 16 17 14 13 11 9 9 8 9 9 10 12
41 40 40 40 40 38 33 34 24 21 30 35 36 36 36 36 37 39 33 30 30 30 32 31 30 26 25 23 21 20 19 18 18 20 23 22 21 19 18 16 14 12 10 8 6 5 6 9 10
42 44 45 45 43 39 38 40 31 28 34 40 41 39 39 37 38 39 37 33 33 29 32 31 31 30 26 25 23 22 20 20 19 20 23 25 25 21 21 18 16 14 11 7 5 3 4 5 8
45 47 50 49 45 44 45 45 42 35 35 41 45 43 42 41 40 41 40 37 34 34 32 33 31 31 29 27 24 23 21 22 20 21 21 24 25 25 23 21 18 17 12 8 6 4 4 5 7
55 56 56 54 50 49 50 51 51 45 38 43 45 45 45 43 41 41 40 38 37 38 33 33 35 32 31 28 26 25 23 24 22 23 22 23 25 26 25 24 21 18 14 11 8 7 7 8 7
59 60 62 61 59 59 58 57 58 58 44 44 48 49 47 48 45 43 43 43 41 41 37 34 32 37 33 30 28 26 26 25 25 24 24 24 25 27 25 25 24 21 16 13 12 10 10 10 10
63 64 64 64 65 64 65 64 67 67 59 50 51 52 52 50 49 45 45 45 43 43 43 37 33 34 35 33 29 27 27 27 26 26 26 26 27 27 26 27 25 24 20 17 15 13 12 11 12
67 70 69 70 70 71 70 68 69 70 69 60 52 56 54 53 54 49 46 46 45 44 43 38 34 35 36 34 31 28 28 28 28 28 29 29 29 28 28 29 28 27 23 21 18 16 14 14 14
74 74 75 75 76 77 77 77 75 74 72 70 60 60 58 56 56 53 48 46 46 44 44 41 36 33 36 36 33 30 29 29 30 30 31 31 31 30 28 30 30 29 27 24 22 19 18 17 17
79 79 77 79 82 84 84 84 83 81 78 74 66 61 62 59 58 57 53 48 47 47 46 45 41 39 36 36 36 33 30 29 29 31 31 33 33 31 31 30 32 31 30 28 26 24 22 22 21
60 52 37 41 46 56 71 79 88 89 84 81 75 66 66 64 61 60 57 50 49 49 49 49 47 41 40 38 37 35 32 31 31 30 31 33 35 34 32 30 30 30 32 31 30 29 27 26 25
33 35 37 36 43 46 48 49 70 85 88 85 83 72 70 69 65 61 59 54 50 50 49 51 49 47 45 41 39 38 36 33 32 32 30 31 34 36 35 33 32 32 32 33 34 33 32 31 29
36 37 40 41 45 49 52 53 51 66 87 89 88 81 71 73 69 65 61 58 53 48 51 51 53 51 44 43 42 40 39 36 34 35 32 31 32 34 37 37 35 34 34 35 37 36 35 35 33
40 40 42 46 48 50 54 53 59 43 58 79 87 88 77 75 74 68 63 61 55 53 57 59 54 52 50 49 42 42 40 39 38 35 33 32 33 33 35 36 37 36 37 37 37 38 38 38 37
39 39 42 45 48 53 56 58 54 46 47 65 79 85 82 77 78 72 66 64 61 63 64 41 50 42 55 47 48 45 42 42 41 38 35 33 32 34 33 34 36 37 39 39 38 38 39 40 39
39 42 41 43 49 50 52 54 47 48 45 49 70 82 81 79 79 76 68 66 65 61 55 50 47 54 58 44 55 53 47 49 44 41 36 33 33 31 31 32 35 40 41 40 39 40 40 39 39
35 39 38 39 38 41 46 44 40 43 42 47 54 73 78 80 80 78 71 68 68 64 62 55 54 44 45 45 47 57 53 46 43 42 37 34 32 31 29 30 33 36 38 39 40 41 41 40 40
33 34 35 36 28 33 38 35 37 40 40 42 46 63 76 81 81 81 74 71 70 71 64 59 49 52 53 59 48 50 57 57 46 40 40 37 34 31 30 30 32 34 35 37 39 41 41 40 40
27 31 31 28 27 31 31 32 33 37 36 31 40 50 69 79 84 83 77 71 70 76 64 61 51 41 59 39 41 53 60 50 46 41 40 38 36 33 32 31 32 31 32 34 36 38 39 39 40
25 26 25 20 27 30 21 25 32 34 28 25 31 42 63 77 85 85 79 74 75 73 66 66 45 45 45 46 38 36 48 51 45 45 41 40 40 38 32 31 31 30 34 36 37 37 39 40 42
21 26 24 25 22 19 24 13 14 21 28 27 22 35 53 74 84 84 80 76 75 74 69 73 51 32 28 34 46 36 34 39 47 46 38 32 47 37 33 33 32 32 35 38 39 39 39 40 42
21 23 27 24 21 18 19 15 7 17 16 19 22 33 46 70 83 85 82 78 75 73 74 74 62 61 28 29 36 31 47 26 31 33 35 29 22 26 31 42 36 37 43 40 43 43 41 44 46
28 29 31 26 17 12 15 13 10 8 13 22 17 37 50 68 80 83 83 78 74 73 71 68 58 51 29 47 40 38 33 36 36 30 27 24 24 26 31 30 31 35 41 48 53 54 48 52 56
33 30 24 19 10 10 8 12 10 12 12 14 19 33 50 66 80 82 81 78 73 67 66 62 61 50 44 32 33 42 30 34 37 36 33 32 35 29 26 26 34 33 32 34 39 46 52 54 54
26 28 32 25 15 8 8 6 7 12 11 14 16 23 47 64 77 81 79 76 71 69 61 62 64 62 46 38 19 36 39 34 38 39 24 23 31 33 38 34 32 28 31 36 38 39 33 36 43
25 27 29 24 13 5 5 10 16 15 15 16 18 23 37 59 73 76 74 71 67 65 60 58 57 49 55 46 36 24 27 40 38 37 33 33 36 29 26 33 30 26 33 30 38 38 40 43 47
28 24 26 22 14 9 14 17 20 17 18 16 8 16 31 53 67 72 69 69 66 63 59 56 56 52 45 44 34 19 27 21 40 39 31 37 43 31 31 30 33 31 31 39 38 47 43 46 49
28 29 25 26 20 10 7 16 13 17 12 7 8 21 22 48 64 70 69 63 62 61 55 54 55 55 43 44 32 21 22 25 24 27 39 24 38 32 31 42 34 28 35 38 41 36 36 51 47
29 30 34 33 26 18 12 11 6 16 13 9 21 16 19 39 59 67 66 60 61 57 51 50 55 52 47 37 32 30 20 18 36 47 47 50 43 46 43 48 54 54 44 47 46 40 42 43 50
39 35 40 38 28 17 16 11 10 15 13 10 20 18 18 33 55 62 62 58 55 54 45 47 50 51 52 38 26 18 24 14 28 33 43 36 42 42 47 45 50 52 54 55 56 57 57 57 60
Wind_Direction
276 274 271 268 265 263 261 266 268 258 265 259 248 240 243 246 248 253 249 238 237 238 238 238 240 236 234 235 226 230 225 224 225 225 219 215 208 208 208 219 219 211 211 216 222 231 233 238 238
268 272 271 268 259 256 261 266 277 257 255 251 246 243 239 240 247 250 249 240 234 238 236 237 238 235 233 232 233 231 228 224 226 218 216 212 208 209 211 214 215 210 200 195 192 208 232 241 243
269 266 268 267 259 258 263 265 267 257 247 246 247 244 244 241 243 248 248 241 232 231 236 236 234 233 232 231 234 231 232 225 222 214 217 214 217 216 212 215 213 210 200 194 200 223 251 264 255
276 270 267 266 266 261 259 260 265 259 251 251 247 243 242 243 239 241 244 246 233 233 233 231 232 231 230 228 231 231 230 228 217 215 213 215 216 216 212 215 212 211 202 200 212 242 271 275 274
280 277 273 269 267 263 261 258 260 261 251 249 246 244 244 241 239 242 243 240 235 232 231 229 231 232 232 226 229 232 228 228 216 212 211 217 216 214 216 210 213 216 209 205 217 245 274 279 286
281 278 276 275 270 264 259 255 256 259 252 245 246 242 239 242 237 236 239 241 237 234 230 224 229 226 232 230 227 232 228 226 218 211 205 214 212 209 212 213 214 216 215 213 222 234 260 278 291
279 277 275 273 271 267 263 257 254 254 257 246 245 244 238 237 238 233 238 238 239 238 237 225 225 222 227 231 228 230 232 225 220 214 206 211 209 213 212 214 215 216 219 221 227 237 255 272 292
276 274 273 272 268 266 263 259 255 252 255 253 245 247 243 235 236 235 232 238 238 238 238 230 223 223 224 227 226 228 233 230 222 219 213 210 214 217 216 217 219 220 222 224 232 239 253 264 280
279 277 274 272 268 264 262 260 256 252 248 250 245 245 243 239 234 232 232 231 238 237 234 233 223 220 221 226 226 227 229 230 226 221 219 218 218 222 223 222 225 224 226 228 234 239 248 255 261
286 284 282 276 272 266 260 257 254 251 247 245 244 239 242 240 235 231 229 227 231 235 232 232 229 221 222 223 225 228 228 229 228 225 222 224 226 226 228 225 228 231 232 233 238 241 245 252 255
291 291 286 282 278 272 265 259 251 248 245 242 240 234 235 237 235 229 227 226 225 230 230 227 229 223 218 222 223 224 228 228 228 229 225 226 228 229 231 231 234 236 239 237 239 245 248 252 255
295 296 291 286 287 285 278 271 253 245 241 238 236 233 230 231 232 229 224 223 221 226 233 229 225 225 216 220 222 222 223 226 228 229 228 229 230 230 233 234 235 238 241 243 242 243 249 253 256
302 296 297 294 292 287 281 277 269 249 238 234 232 230 225 226 227 227 222 220 219 220 229 230 226 222 219 217 223 223 223 225 228 229 227 229 232 232 234 236 238 240 244 245 246 246 248 252 256
304 297 291 291 289 283 276 268 265 275 249 232 226 226 222 222 224 224 220 217 216 212 228 225 225 225 231 218 219 224 224 226 227 229 229 230 232 234 235 237 239 241 245 248 250 250 250 252 255
295 292 288 289 287 279 272 265 260 264 263 235 225 221 219 215 220 221 218 215 213 213 220 216 222 209 228 218 217 221 222 227 226 226 227 229 232 235 237 239 241 242 244 249 251 251 252 254 256
300 291 296 295 285 275 268 262 252 260 264 249 224 218 216 211 216 218 215 214 211 213 215 228 218 218 226 226 229 221 222 223 224 224 226 228 232 235 238 240 242 241 244 248 250 251 252 254 256
297 295 308 301 289 278 270 268 250 256 262 248 233 219 213 207 211 216 213 211 211 210 211 208 214 225 225 224 232 218 221 225 223 227 227 231 231 235 238 240 242 244 244 247 249 253 254 254 257
298 302 316 307 291 274 269 271 253 256 264 255 234 220 211 204 206 214 211 209 209 210 214 218 211 218 228 218 226 227 224 225 223 222 224 229 232 233 236 240 243 246 248 251 252 254 256 255 256
299 311 321 318 300 289 280 260 251 258 267 262 235 225 211 203 203 210 210 207 208 212 206 211 209 224 224 220 218 229 221 223 224 227 226 231 236 234 234 238 245 250 249 252 256 259 258 257 257
297 314 321 340 310 304 301 281 260 259 268 266 237 223 211 202 201 207 209 206 206 204 205 201 206 210 218 221 225 231 217 220 222 224 226 230 233 232 231 236 240 245 246 255 257 256 256 258 260
303 319 328 325 330 306 306 304 281 265 260 259 247 218 213 200 201 204 208 207 207 210 208 213 208 200 229 219 236 226 211 226 230 227 228 242 232 228 230 236 239 239 250 252 254 255 258 261 263
320 323 321 324 329 345 305 331 304 258 262 254 238 213 211 199 201 202 206 207 207 209 210 213 221 221 233 222 220 224 238 242 226 230 233 231 239 243 250 244 242 245 248 256 260 265 260 268 269
330 327 318 317 317 332 322 353 308 302 265 255 246 209 202 198 200 202 204 206 206 208 211 213 218 224 213 233 242 235 230 236 244 250 242 255 254 263 262 261 265 271 266 259 257 258 261 260 264
333 324 325 324 317 325 325 338 337 319 302 285 235 213 202 199 198 200 203 204 204 209 208 210 208 211 215 206 236 227 225 229 240 245 247 249 260 251 255 260 273 273 271 272 275 275 272 273 284
329 326 346 349 346 352 336 347 352 349 309 276 238 221 201 199 198 198 200 201 203 208 204 205 205 216 223 222 217 230 232 225 243 248 228 237 247 250 254 258 268 259 263 263 269 273 279 285 292
338 340 344 355 357 73 39 1 337 319 316 263 253 220 205 198 198 197 199 199 200 205 202 206 211 213 222 231 228 247 225 225 223 221 227 237 242 242 258 247 256 269 262 275 279 286 283 276 290
347 342 348 354 1 343 340 350 328 338 314 275 262 220 209 195 196 196 197 198 198 200 203 200 205 210 209 216 210 231 237 234 230 235 238 235 241 245 254 268 263 259 260 273 267 266 271 275 279
359 0 352 354 356 3 341 6 2 336 357 346 177 204 192 195 194 193 195 194 196 199 203 200 206 205 212 223 221 227 236 229 224 214 230 242 236 251 251 254 256 264 273 271 276 274 281 279 274
25 9 359 355 360 358 346 2 17 348 4 129 167 178 199 186 191 190 190 191 196 199 200 205 210 216 215 206 216 221 230 222 229 245 250 253 257 254 258 266 265 273 272 270 279 277 281 287 280
23 14 7 11 16 41 24 47 66 13 45 149 145 159 177 170 184 186 188 190 193 198 197 203 213 217 219 206 204 242 232 238 227 231 238 251 250 258 263 273 274 280 283 283 282 280 275 278 281
Height
5757 5756 5754 5755 5759 5756 5758 5760 5765 5768 5765 5764 5765 5764 5767 5768 5769 5773 5777 5782 5784 5784 5787 5790 5792 5794 5797 5798 5799 5801 5802 5803 5806 5809 5811 5814 5817 5821 5821 5824 5826 5827 5828 5829 5830 5830 5830 5831 5832
5750 5748 5747 5746 5748 5750 5755 5756 5760 5760 5756 5755 5756 5757 5758 5761 5763 5765 5771 5776 5777 5779 5781 5784 5787 5790 5793 5794 5796 5798 5798 5800 5802 5805 5809 5811 5814 5817 5821 5822 5825 5826 5827 5828 5828 5828 5829 5829 5830
5741 5740 5739 5737 5739 5743 5746 5747 5752 5750 5747 5746 5747 5750 5752 5755 5757 5759 5764 5768 5771 5773 5775 5778 5782 5784 5788 5790 5793 5794 5795 5797 5799 5801 5806 5808 5811 5814 5818 5821 5822 5825 5826 5827 5827 5827 5828 5828 5828
5730 5730 5728 5727 5732 5734 5734 5735 5737 5739 5740 5739 5740 5743 5744 5746 5749 5751 5755 5762 5765 5767 5769 5773 5776 5778 5782 5786 5788 5790 5791 5794 5795 5798 5802 5805 5808 5812 5814 5819 5820 5823 5825 5826 5827 5827 5827 5827 5827
5716 5715 5714 5718 5722 5720 5721 5723 5722 5726 5729 5729 5730 5734 5737 5739 5742 5745 5748 5754 5758 5761 5763 5767 5770 5774 5777 5780 5784 5786 5787 5790 5791 5794 5797 5801 5804 5808 5812 5814 5818 5822 5823 5824 5826 5826 5826 5827 5826
5701 5699 5699 5703 5706 5705 5707 5709 5707 5710 5716 5720 5720 5723 5728 5729 5733 5737 5740 5745 5750 5755 5757 5760 5763 5768 5773 5776 5778 5782 5782 5786 5787 5790 5793 5797 5800 5803 5807 5812 5815 5818 5821 5822 5824 5824 5825 5825 5824
5686 5684 5687 5688 5688 5687 5691 5693 5694 5695 5701 5705 5709 5712 5717 5721 5724 5728 5732 5737 5742 5748 5752 5755 5757 5762 5767 5771 5774 5778 5779 5781 5783 5786 5789 5793 5797 5800 5803 5807 5811 5814 5818 5819 5821 5821 5821 5822 5822
5670 5667 5668 5668 5671 5670 5673 5675 5677 5681 5686 5691 5697 5700 5706 5711 5714 5719 5724 5729 5734 5740 5745 5750 5753 5756 5761 5765 5769 5772 5776 5777 5780 5783 5786 5788 5793 5796 5799 5803 5806 5810 5814 5816 5817 5817 5818 5819 5819
5650 5650 5647 5647 5647 5651 5650 5653 5657 5661 5669 5673 5680 5687 5693 5698 5703 5709 5715 5720 5726 5732 5738 5743 5748 5750 5755 5760 5763 5767 5771 5774 5776 5779 5783 5785 5790 5792 5795 5798 5802 5805 5809 5812 5813 5813 5814 5815 5815
5626 5626 5621 5625 5622 5623 5627 5629 5634 5638 5647 5658 5663 5671 5678 5684 5690 5698 5703 5710 5717 5724 5730 5735 5742 5745 5748 5753 5758 5761 5766 5769 5773 5775 5778 5782 5785 5788 5791 5794 5798 5801 5804 5808 5809 5809 5810 5811 5810
5607 5605 5602 5600 5596 5593 5598 5601 5605 5613 5628 5635 5644 5653 5662 5669 5676 5685 5693 5700 5706 5714 5718 5725 5732 5738 5741 5746 5750 5755 5760 5764 5768 5770 5774 5777 5780 5784 5787 5790 5793 5796 5799 5802 5803 5805 5805 5806 5807
5596 5594 5589 5589 5584 5581 5578 5575 5579 5582 5606 5610 5622 5633 5644 5653 5662 5672 5682 5689 5697 5703 5713 5718 5722 5729 5733 5738 5743 5748 5752 5757 5762 5765 5768 5772 5776 5779 5782 5785 5787 5790 5793 5796 5798 5798 5800 5801 5802
5586 5584 5579 5574 5570 5566 5560 5561 5558 5560 5575 5585 5598 5612 5626 5635 5646 5657 5668 5678 5688 5695 5703 5709 5714 5720 5724 5731 5736 5741 5746 5750 5755 5759 5762 5766 5770 5773 5775 5779 5781 5784 5787 5788 5792 5792 5793 5794 5796
5577 5573 5569 5562 5556 5549 5541 5545 5537 5559 5551 5553 5572 5591 5604 5619 5631 5641 5655 5666 5678 5684 5690 5696 5703 5711 5718 5723 5729 5735 5739 5743 5747 5753 5757 5760 5762 5766 5770 5773 5776 5778 5779 5782 5785 5787 5787 5788 5788
5565 5561 5555 5550 5542 5531 5523 5525 5529 5529 5530 5536 5549 5567 5581 5601 5613 5628 5643 5654 5665 5670 5676 5685 5695 5703 5710 5712 5720 5726 5732 5737 5740 5745 5749 5753 5756 5760 5763 5767 5770 5771 5772 5774 5778 5780 5780 5780 5781
5555 5547 5543 5536 5523 5514 5503 5505 5516 5514 5516 5520 5529 5546 5563 5584 5599 5613 5631 5643 5652 5660 5670 5675 5681 5699 5699 5702 5711 5718 5723 5728 5734 5738 5743 5746 5749 5753 5756 5759 5761 5762 5764 5766 5769 5772 5773 5773 5774
5543 5536 5529 5521 5509 5498 5491 5494 5504 5502 5503 5505 5514 5528 5546 5566 5585 5600 5616 5631 5642 5650 5659 5672 5676 5667 5685 5696 5701 5707 5714 5720 5726 5732 5736 5740 5742 5746 5749 5752 5753 5755 5757 5759 5760 5763 5765 5766 5767
5532 5525 5518 5506 5499 5487 5484 5487 5490 5492 5490 5492 5501 5512 5529 5550 5570 5585 5602 5617 5628 5640 5653 5665 5668 5677 5671 5676 5692 5699 5705 5712 5718 5723 5729 5733 5736 5739 5742 5744 5746 5749 5751 5752 5752 5753 5756 5758 5759
5522 5515 5506 5500 5489 5478 5476 5475 5479 5483 5483 5483 5490 5500 5516 5537 5553 5569 5587 5605 5619 5629 5644 5654 5663 5665 5675 5677 5683 5690 5699 5707 5712 5717 5722 5726 5730 5733 5735 5737 5739 5742 5744 5744 5746 5747 5749 5749 5750
5513 5507 5501 5494 5484 5475 5472 5470 5472 5474 5476 5476 5480 5488 5501 5522 5540 5558 5575 5591 5606 5621 5633 5644 5657 5663 5664 5673 5681 5686 5691 5697 5704 5709 5715 5720 5723 5726 5728 5729 5732 5734 5736 5738 5739 5738 5740 5740 5740
5509 5501 5495 5487 5482 5474 5468 5467 5466 5466 5467 5471 5474 5481 5489 5509 5528 5546 5565 5581 5595 5610 5625 5632 5646 5654 5660 5669 5675 5683 5687 5692 5697 5704 5711 5714 5714 5717 5721 5723 5725 5727 5729 5729 5730 5730 5731 5731 5731
5504 5497 5489 5483 5476 5471 5467 5466 5462 5460 5461 5463 5466 5472 5483 5499 5516 5533 5551 5569 5587 5602 5615 5626 5635 5645 5657 5666 5662 5671 5681 5687 5694 5698 5702 5707 5709 5712 5715 5717 5719 5720 5722 5723 5723 5723 5723 5723 5723
5497 5490 5481 5477 5473 5470 5466 5465 5461 5460 5458 5458 5459 5461 5465 5482 5501 5521 5541 5559 5578 5593 5608 5623 5631 5644 5648 5663 5667 5671 5676 5683 5690 5693 5699 5702 5704 5707 5709 5710 5711 5712 5713 5713 5714 5714 5712 5712 5711
5490 5482 5477 5469 5466 5466 5463 5462 5460 5458 5456 5454 5455 5457 5463 5477 5491 5510 5532 5553 5573 5587 5602 5619 5628 5637 5641 5650 5644 5666 5662 5677 5686 5689 5693 5697 5698 5700 5701 5703 5705 5705 5705 5705 5705 5704 5703 5700 5699
5490 5478 5471 5467 5463 5462 5460 5458 5456 5455 5452 5450 5452 5454 5459 5472 5488 5506 5527 5547 5567 5581 5598 5614 5623 5630 5638 5645 5652 5658 5666 5672 5678 5682 5686 5689 5692 5694 5696 5697 5697 5697 5697 5697 5696 5694 5692 5691 5688
5484 5479 5471 5465 5461 5460 5458 5456 5455 5452 5450 5448 5449 5453 5458 5470 5488 5509 5527 5546 5563 5577 5594 5609 5619 5626 5635 5646 5651 5654 5659 5659 5664 5667 5677 5681 5681 5683 5686 5688 5688 5688 5689 5688 5685 5684 5682 5680 5677
5488 5481 5472 5465 5460 5458 5457 5455 5453 5448 5445 5442 5444 5450 5459 5470 5487 5507 5525 5541 5557 5571 5587 5601 5612 5625 5635 5645 5648 5651 5651 5658 5662 5666 5668 5673 5676 5677 5679 5680 5678 5678 5678 5676 5674 5672 5671 5669 5666
5489 5480 5473 5464 5459 5456 5454 5453 5451 5448 5443 5440 5442 5447 5455 5466 5481 5499 5522 5545 5561 5574 5588 5603 5613 5624 5630 5638 5645 5646 5651 5652 5653 5659 5660 5661 5663 5665 5670 5670 5668 5669 5666 5665 5663 5661 5660 5658 5655
5495 5486 5474 5465 5459 5455 5454 5453 5452 5446 5444 5444 5445 5451 5459 5468 5486 5508 5529 5547 5563 5577 5590 5602 5611 5618 5627 5636 5639 5644 5646 5644 5649 5653 5656 5656 5659 5659 5659 5659 5658 5657 5656 5655 5653 5651 5649 5646 5643
5499 5488 5478 5468 5462 5459 5456 5455 5454 5450 5447 5446 5448 5456 5463 5474 5492 5513 5532 5550 5565 5579 5590 5600 5609 5616 5623 5632 5636 5637 5639 5639 5640 5643 5649 5648 5649 5652 5651 5651 5650 5647 5645 5644 5642 5641 5638 5632 5628